O3B FM19 (44113 NORAD) Tracking and Keplerian Element Data

This shows tracking and keplerian element data for the satellite.

Feedback or suggestion? Click here.




ElementValue
Catalog44113
NameO3B FM19
Epoch Orbit48
Epoch Day104.17826695
Epoch Year2019
RAAN323.1391
Inclination0.0369
Eccentricity0.0007308
Argument of Perigee189.0779
Mean Anonmoly207.8216
Mean Motion5.12698602
Decay Rate-2.1E-07
L11 44113U 19020B 19104.17826695 -.00000021 00000-0 00000-0 0 9998
L22 44113 0.0369 323.1391 0007308 189.0779 207.8216 5.12698602 481

Live tracking and technical data element details for O3B FM19 (NORAD 44113). O3B FM19 can be tracked NOW for your location showing map with azimuth and elevation plus other details from your city location.

Track the satellite on the map from your city or location and see movement details for azimuth, elevation, latitude, longitude, range, height, and movement on the map or in text.







IsCatalogInMostPopularTable: catalog: 44113, numindb: 6
Update: records affected: 1



GetName: 44113 O3B FM19

Hit Count: updated at: Tue, 23 Apr 2019 02:32:17 GMT